BSAT-4B

Last updated on Tue Sep 22 2026 00:03:15 GMT+0000 (Coordinated Universal Time)

1 46112U 20056A 26264.58215110 -.00000354 00000+0 00000+0 0 9991 2 46112 0.0214 153.2026 0004140 4.0207 162.6385 1.00269918 22353
UTC large
Height (km)
Speed (km/s)
/
Latitude / Longitude
Inclination (degrees)
Orbital Period (minutes)
Azimuth
Elevation
Range (km)
Doppler Factor

Next 0 passes for location: London (51.5072 / 0.1276)

No passes found over London.
BSAT-4B